| time (UTC) | temp F | wind direction | speed MPH | gust MPH | rain 1hr in | rain 24hr in | rain mn in | humidity % | barometer mb |
| 20260905095020 | 62 | 282 | 1.0 | 3.0 | 0.00 | 0.00 | 0.00 | 88 | 1007.1 |
| 20260905093520 | 62 | 254 | 1.0 | 2.0 | 0.00 | 0.00 | 0.00 | 88 | 1007.0 |
| 20260905093020 | 62 | 271 | 1.0 | 2.0 | 0.00 | 0.00 | 0.00 | 88 | 1007.0 |
| 20260905092520 | 62 | 251 | 1.0 | 2.0 | 0.00 | 0.00 | 0.00 | 88 | 1006.9 |
| 20260905092020 | 62 | 282 | 0.0 | 1.0 | 0.00 | 0.00 | 0.00 | 87 | 1007.0 |
| 20260905091521 | 62 | 256 | 1.0 | 2.0 | 0.00 | 0.00 | 0.00 | 87 | 1007.0 |
| 20260905091020 | 62 | 254 | 1.0 | 1.0 | 0.00 | 0.00 | 0.00 | 87 | 1006.9 |
| 20260905090520 | 62 | 265 | 1.0 | 3.0 | 0.00 | 0.00 | 0.00 | 86 | 1006.9 |
| 20260905090020 | 62 | 278 | 0.0 | 3.0 | 0.00 | 0.00 | 0.00 | 86 | 1006.9 |
| 20260905085520 | 62 | 282 | 1.0 | 2.0 | 0.00 | 0.00 | 0.00 | 86 | 1006.9 |
| 20260905085020 | 62 | 297 | 1.0 | 2.0 | 0.00 | 0.00 | 0.00 | 87 | 1006.9 |
| 20260905084521 | 62 | 249 | 1.0 | 2.0 | 0.00 | 0.00 | 0.00 | 87 | 1006.9 |
| 20260905084021 | 62 | 272 | 1.0 | 2.0 | 0.00 | 0.00 | 0.00 | 86 | 1006.9 |
| 20260905083020 | 62 | 253 | 1.0 | 2.0 | 0.00 | 0.00 | 0.00 | 87 | 1006.8 |
| 20260905082020 | 62 | 250 | 0.0 | 3.0 | 0.00 | 0.00 | 0.00 | 86 | 1006.7 |
| 20260905081520 | 62 | 273 | 1.0 | 2.0 | 0.00 | 0.00 | 0.00 | 86 | 1006.7 |
| 20260905081020 | 62 | 226 | 1.0 | 3.0 | 0.00 | 0.00 | 0.00 | 86 | 1006.9 |
| 20260905080520 | 62 | 235 | 1.0 | 2.0 | 0.00 | 0.00 | 0.00 | 86 | 1006.7 |
| 20260905080020 | 62 | 231 | 1.0 | 2.0 | 0.00 | 0.00 | 0.00 | 86 | 1006.9 |
| 20260905075520 | 62 | 255 | 1.0 | 2.0 | 0.00 | 0.00 | 0.00 | 87 | 1006.9 |
| 20260905075020 | 62 | 273 | 1.0 | 5.0 | 0.00 | 0.00 | 0.00 | 87 | 1006.9 |
| 20260905074020 | 62 | 254 | 1.0 | 5.0 | 0.00 | 0.00 | 0.00 | 87 | 1006.9 |
| 20260905073520 | 62 | 268 | 0.0 | 2.0 | 0.00 | 0.00 | 0.00 | 86 | 1006.9 |
| 20260905073020 | 62 | 271 | 1.0 | 5.0 | 0.00 | 0.00 | 0.00 | 87 | 1006.9 |
| 20260905071020 | 63 | 307 | 1.0 | 2.0 | 0.00 | 0.00 | 0.00 | 86 | 1007.1 |
| 20260905070520 | 63 | 240 | 1.0 | 2.0 | 0.00 | 0.00 | 0.00 | 86 | 1007.1 |
| 20260905065520 | 63 | 257 | 1.0 | 1.0 | 0.00 | 0.00 | 0.00 | 86 | 1007.0 |
| 20260905065019 | 63 | 252 | 1.0 | 3.0 | 0.00 | 0.00 | 0.00 | 85 | 1007.2 |
| 20260905064520 | 63 | 303 | 1.0 | 3.0 | 0.00 | 0.00 | 0.00 | 85 | 1007.3 |
| 20260905063520 | 63 | 229 | 0.0 | 1.0 | 0.00 | 0.00 | 0.00 | 87 | 1007.4 |
| 20260905063020 | 63 | 242 | 0.0 | 3.0 | 0.00 | 0.00 | 0.00 | 86 | 1007.4 |
| 20260905062020 | 63 | 250 | 0.0 | 1.0 | 0.00 | 0.00 | 0.00 | 86 | 1007.4 |
| 20260905061520 | 63 | 266 | 1.0 | 1.0 | 0.00 | 0.00 | 0.00 | 85 | 1007.5 |
| 20260905060520 | 64 | 251 | 1.0 | 2.0 | 0.00 | 0.00 | 0.00 | 84 | 1007.6 |
| 20260905060019 | 64 | 264 | 1.0 | 2.0 | 0.00 | 0.00 | 0.00 | 84 | 1007.8 |
| 20260905055520 | 64 | 210 | 1.0 | 2.0 | 0.00 | 0.00 | 0.00 | 84 | 1007.8 |
| 20260905055019 | 63 | 277 | 0.0 | 1.0 | 0.00 | 0.00 | 0.00 | 84 | 1007.8 |
| 20260905054520 | 63 | 262 | 1.0 | 2.0 | 0.00 | 0.00 | 0.00 | 85 | 1007.6 |
| 20260905054019 | 64 | 275 | 0.0 | 2.0 | 0.00 | 0.00 | 0.00 | 85 | 1007.6 |
| 20260905053519 | 64 | 279 | 1.0 | 1.0 | 0.00 | 0.00 | 0.00 | 84 | 1007.8 |
| 20260905053020 | 64 | 248 | 0.0 | 1.0 | 0.00 | 0.00 | 0.00 | 84 | 1007.6 |
| 20260905052519 | 64 | 254 | 1.0 | 1.0 | 0.00 | 0.00 | 0.00 | 83 | 1007.8 |
| 20260905052019 | 64 | 247 | 0.0 | 1.0 | 0.00 | 0.00 | 0.00 | 82 | 1007.7 |
| 20260905051520 | 64 | 245 | 1.0 | 2.0 | 0.00 | 0.00 | 0.00 | 82 | 1007.8 |
| 20260905051020 | 65 | 276 | 0.0 | 1.0 | 0.00 | 0.00 | 0.00 | 80 | 1007.8 |
| 20260905050519 | 65 | 249 | 1.0 | 2.0 | 0.00 | 0.00 | 0.00 | 81 | 1007.6 |
| 20260905050020 | 65 | 255 | 1.0 | 2.0 | 0.00 | 0.00 | 0.00 | 80 | 1007.6 |
| 20260905045520 | 65 | 262 | 1.0 | 2.0 | 0.00 | 0.00 | 0.00 | 79 | 1007.8 |
| 20260905045020 | 65 | 272 | 1.0 | 2.0 | 0.00 | 0.00 | 0.00 | 78 | 1007.9 |
| 20260905044520 | 65 | 260 | 1.0 | 1.0 | 0.00 | 0.00 | 0.00 | 78 | 1007.8 |
| 20260905044019 | 65 | 244 | 1.0 | 1.0 | 0.00 | 0.00 | 0.00 | 78 | 1007.7 |
| 20260905043520 | 66 | 252 | 1.0 | 1.0 | 0.00 | 0.00 | 0.00 | 77 | 1007.5 |
| 20260905042520 | 66 | 273 | 1.0 | 2.0 | 0.00 | 0.00 | 0.00 | 75 | 1007.6 |
| 20260905042019 | 66 | 261 | 1.0 | 2.0 | 0.00 | 0.00 | 0.00 | 74 | 1007.6 |
| 20260905041519 | 66 | 241 | 1.0 | 2.0 | 0.00 | 0.00 | 0.00 | 74 | 1007.8 |
| 20260905041019 | 66 | 251 | 1.0 | 1.0 | 0.00 | 0.00 | 0.00 | 75 | 1007.6 |
| 20260905040520 | 66 | 253 | 1.0 | 2.0 | 0.00 | 0.00 | 0.00 | 74 | 1007.8 |
| 20260905040019 | 67 | 289 | 1.0 | 3.0 | 0.00 | 0.00 | 0.00 | 74 | 1007.7 |
| 20260905035519 | 67 | 259 | 1.0 | 2.0 | 0.00 | 0.00 | 0.00 | 73 | 1007.8 |
| 20260905035019 | 67 | 268 | 2.0 | 2.0 | 0.00 | 0.00 | 0.00 | 72 | 1007.6 |
| 20260905034519 | 67 | 259 | 2.0 | 5.0 | 0.00 | 0.00 | 0.00 | 71 | 1007.6 |
| 20260905034019 | 67 | 258 | 1.0 | 2.0 | 0.00 | 0.00 | 0.00 | 71 | 1007.6 |
| 20260905033520 | 67 | 263 | 1.0 | 3.0 | 0.00 | 0.00 | 0.00 | 72 | 1007.8 |
| 20260905033020 | 67 | 274 | 1.0 | 3.0 | 0.00 | 0.00 | 0.00 | 70 | 1007.7 |
| 20260905032519 | 67 | 254 | 2.0 | 3.0 | 0.00 | 0.00 | 0.00 | 70 | 1007.7 |
| 20260905032019 | 67 | 301 | 1.0 | 3.0 | 0.00 | 0.00 | 0.00 | 71 | 1007.6 |
| 20260905031519 | 67 | 265 | 1.0 | 2.0 | 0.00 | 0.00 | 0.00 | 72 | 1007.8 |
| 20260905031019 | 68 | 270 | 1.0 | 2.0 | 0.00 | 0.00 | 0.00 | 71 | 1007.8 |
| 20260905030519 | 68 | 254 | 1.0 | 3.0 | 0.00 | 0.00 | 0.00 | 70 | 1007.6 |
| 20260905030019 | 68 | 260 | 2.0 | 3.0 | 0.00 | 0.00 | 0.00 | 70 | 1007.5 |
| 20260905025019 | 68 | 270 | 1.0 | 2.0 | 0.00 | 0.00 | 0.00 | 68 | 1007.7 |
| 20260905024519 | 68 | 249 | 1.0 | 3.0 | 0.00 | 0.00 | 0.00 | 68 | 1007.6 |
| 20260905024019 | 68 | 262 | 1.0 | 2.0 | 0.00 | 0.00 | 0.00 | 68 | 1007.6 |
| 20260905023520 | 68 | 288 | 1.0 | 2.0 | 0.00 | 0.00 | 0.00 | 68 | 1007.6 |
| 20260905023019 | 68 | 317 | 1.0 | 2.0 | 0.00 | 0.00 | 0.00 | 68 | 1007.8 |
| 20260905022519 | 68 | 262 | 1.0 | 3.0 | 0.00 | 0.00 | 0.00 | 70 | 1007.8 |
| 20260905022019 | 68 | 269 | 1.0 | 2.0 | 0.00 | 0.00 | 0.00 | 75 | 1007.8 |
| 20260905021519 | 68 | 273 | 1.0 | 2.0 | 0.00 | 0.00 | 0.00 | 73 | 1007.8 |
| 20260905021019 | 69 | 259 | 1.0 | 2.0 | 0.00 | 0.00 | 0.00 | 71 | 1007.9 |
| 20260905020519 | 69 | 272 | 1.0 | 2.0 | 0.00 | 0.00 | 0.00 | 67 | 1007.9 |
| 20260905020019 | 70 | 296 | 1.0 | 2.0 | 0.00 | 0.00 | 0.00 | 66 | 1007.9 |
| 20260905015519 | 69 | 277 | 1.0 | 3.0 | 0.00 | 0.00 | 0.00 | 65 | 1007.9 |
| 20260905015019 | 69 | 264 | 1.0 | 3.0 | 0.00 | 0.00 | 0.00 | 66 | 1007.9 |
| 20260905014519 | 70 | 318 | 1.0 | 1.0 | 0.00 | 0.00 | 0.00 | 66 | 1007.9 |
| 20260905013519 | 70 | 273 | 1.0 | 3.0 | 0.00 | 0.00 | 0.00 | 65 | 1008.2 |
| 20260905013019 | 70 | 250 | 1.0 | 2.0 | 0.00 | 0.00 | 0.00 | 66 | 1008.1 |
| 20260905012519 | 70 | 268 | 1.0 | 3.0 | 0.00 | 0.00 | 0.00 | 64 | 1008.2 |
| 20260905011519 | 71 | 234 | 1.0 | 5.0 | 0.00 | 0.00 | 0.00 | 63 | 1008.1 |
| 20260905010019 | 71 | 290 | 1.0 | 2.0 | 0.00 | 0.00 | 0.00 | 61 | 1008.2 |
| 20260905005019 | 72 | 252 | 1.0 | 6.0 | 0.00 | 0.00 | 0.00 | 63 | 1008.1 |
| 20260905004519 | 72 | 273 | 1.0 | 5.0 | 0.00 | 0.00 | 0.00 | 61 | 1007.9 |
| 20260905004019 | 72 | 298 | 1.0 | 3.0 | 0.00 | 0.00 | 0.00 | 60 | 1007.9 |
| 20260905003519 | 72 | 284 | 1.0 | 3.0 | 0.00 | 0.00 | 0.00 | 61 | 1007.9 |
| 20260905003019 | 71 | 319 | 1.0 | 2.0 | 0.00 | 0.00 | 0.00 | 63 | 1007.9 |
| 20260905002519 | 71 | 289 | 0.0 | 1.0 | 0.00 | 0.00 | 0.00 | 66 | 1007.9 |
| 20260905002019 | 71 | 302 | 1.0 | 2.0 | 0.00 | 0.00 | 0.00 | 66 | 1007.9 |
| 20260905001518 | 71 | 256 | 0.0 | 1.0 | 0.00 | 0.00 | 0.00 | 69 | 1007.9 |
| 20260905001019 | 71 | 269 | 0.0 | 1.0 | 0.00 | 0.00 | 0.00 | 67 | 1007.8 |
| 20260905000019 | 72 | 285 | 1.0 | 1.0 | 0.00 | 0.00 | 0.00 | 65 | 1007.6 |
| 20260904235519 | 72 | 277 | 1.0 | 2.0 | 0.00 | 0.00 | 0.00 | 66 | 1007.6 |
| 20260904233519 | 73 | 233 | 1.0 | 2.0 | 0.00 | 0.00 | 0.00 | 64 | 1007.5 |
| 20260904233019 | 73 | 286 | 1.0 | 3.0 | 0.00 | 0.00 | 0.00 | 65 | 1007.5 |
| 20260904232518 | 72 | 314 | 1.0 | 2.0 | 0.00 | 0.00 | 0.00 | 61 | 1007.4 |
| 20260904232019 | 72 | 254 | 1.0 | 2.0 | 0.00 | 0.00 | 0.00 | 65 | 1007.4 |
| 20260904231518 | 72 | 249 | 0.0 | 0.0 | 0.00 | 0.00 | 0.00 | 65 | 1007.4 |
| 20260904230518 | 73 | 224 | 1.0 | 1.0 | 0.00 | 0.00 | 0.00 | 63 | 1007.4 |
| 20260904230019 | 74 | 241 | 0.0 | 0.0 | 0.00 | 0.00 | 0.00 | 62 | 1007.3 |
| 20260904225519 | 74 | 241 | 0.0 | 0.0 | 0.00 | 0.00 | 0.00 | 62 | 1007.3 |
| 20260904225018 | 74 | 34 | 0.0 | 0.0 | 0.00 | 0.00 | 0.00 | 61 | 1007.2 |
| 20260904224519 | 75 | 35 | 0.0 | 0.0 | 0.00 | 0.00 | 0.00 | 60 | 1007.2 |
| 20260904223018 | 75 | 235 | 0.0 | 1.0 | 0.00 | 0.00 | 0.00 | 62 | 1007.1 |
| 20260904222518 | 75 | 276 | 1.0 | 3.0 | 0.00 | 0.00 | 0.00 | 63 | 1007.1 |
| 20260904222019 | 75 | 234 | 1.0 | 2.0 | 0.00 | 0.00 | 0.00 | 63 | 1007.1 |
| 20260904221518 | 75 | 247 | 0.0 | 2.0 | 0.00 | 0.00 | 0.00 | 63 | 1007.0 |
| 20260904221018 | 76 | 247 | 1.0 | 1.0 | 0.00 | 0.00 | 0.00 | 60 | 1007.0 |
| 20260904220519 | 77 | 262 | 1.0 | 2.0 | 0.00 | 0.00 | 0.00 | 59 | 1006.9 |
| 20260904220018 | 78 | 284 | 1.0 | 2.0 | 0.00 | 0.00 | 0.00 | 55 | 1006.9 |
| 20260904215519 | 78 | 103 | 1.0 | 2.0 | 0.00 | 0.00 | 0.00 | 52 | 1006.9 |
| 20260904214518 | 78 | 338 | 1.0 | 5.0 | 0.00 | 0.00 | 0.00 | 53 | 1006.9 |
| 20260904214018 | 78 | 8 | 2.0 | 7.0 | 0.00 | 0.00 | 0.00 | 55 | 1006.9 |
| 20260904213518 | 77 | 219 | 1.0 | 1.0 | 0.00 | 0.00 | 0.00 | 58 | 1007.0 |
| 20260904213019 | 77 | 188 | 1.0 | 2.0 | 0.00 | 0.00 | 0.00 | 58 | 1007.1 |
| 20260904212019 | 78 | 145 | 1.0 | 5.0 | 0.00 | 0.00 | 0.00 | 53 | 1006.9 |
| 20260904211518 | 78 | 255 | 1.0 | 5.0 | 0.00 | 0.00 | 0.00 | 55 | 1006.9 |
| 20260904211019 | 77 | 182 | 1.0 | 2.0 | 0.00 | 0.00 | 0.00 | 55 | 1006.9 |
| 20260904210518 | 77 | 270 | 1.0 | 2.0 | 0.00 | 0.00 | 0.00 | 54 | 1006.9 |
| 20260904210018 | 78 | 337 | 1.0 | 3.0 | 0.00 | 0.00 | 0.00 | 53 | 1006.9 |
| 20260904205518 | 78 | 8 | 1.0 | 3.0 | 0.00 | 0.00 | 0.00 | 53 | 1006.9 |
| 20260904205018 | 78 | 337 | 1.0 | 2.0 | 0.00 | 0.00 | 0.00 | 52 | 1006.9 |
| 20260904204018 | 79 | 217 | 0.0 | 2.0 | 0.00 | 0.00 | 0.00 | 53 | 1006.9 |
| 20260904203018 | 79 | 98 | 1.0 | 6.0 | 0.00 | 0.00 | 0.00 | 50 | 1007.0 |
| 20260904202018 | 79 | 301 | 2.0 | 5.0 | 0.00 | 0.00 | 0.00 | 55 | 1007.1 |
| 20260904201518 | 79 | 237 | 1.0 | 3.0 | 0.00 | 0.00 | 0.00 | 53 | 1007.2 |
| 20260904201018 | 79 | 52 | 1.0 | 6.0 | 0.00 | 0.00 | 0.00 | 52 | 1007.0 |
| 20260904200518 | 79 | 251 | 1.0 | 3.0 | 0.00 | 0.00 | 0.00 | 49 | 1007.0 |
| 20260904200018 | 79 | 281 | 2.0 | 5.0 | 0.00 | 0.00 | 0.00 | 51 | 1007.0 |
| 20260904195518 | 79 | 54 | 2.0 | 6.0 | 0.00 | 0.00 | 0.00 | 48 | 1006.9 |
| 20260904195020 | 79 | 279 | 1.0 | 6.0 | 0.00 | 0.00 | 0.00 | 49 | 1006.9 |
| 20260904194518 | 79 | 294 | 1.0 | 5.0 | 0.00 | 0.00 | 0.00 | 53 | 1006.9 |
| 20260904193518 | 80 | 256 | 1.0 | 6.0 | 0.00 | 0.00 | 0.00 | 53 | 1006.9 |
| 20260904192518 | 80 | 59 | 1.0 | 5.0 | 0.00 | 0.00 | 0.00 | 48 | 1006.9 |
| 20260904192018 | 79 | 230 | 1.0 | 5.0 | 0.00 | 0.00 | 0.00 | 53 | 1006.8 |
| 20260904191518 | 79 | 230 | 1.0 | 5.0 | 0.00 | 0.00 | 0.00 | 51 | 1006.9 |
| 20260904191018 | 78 | 152 | 1.0 | 6.0 | 0.00 | 0.00 | 0.00 | 53 | 1006.9 |
| 20260904190518 | 79 | 261 | 2.0 | 5.0 | 0.00 | 0.00 | 0.00 | 54 | 1006.9 |
| 20260904190018 | 79 | 239 | 1.0 | 6.0 | 0.00 | 0.00 | 0.00 | 53 | 1007.0 |
| 20260904185518 | 79 | 15 | 2.0 | 6.0 | 0.00 | 0.00 | 0.00 | 49 | 1007.1 |
| 20260904184518 | 80 | 269 | 2.0 | 7.0 | 0.00 | 0.00 | 0.00 | 48 | 1007.3 |
| 20260904184018 | 82 | 277 | 2.0 | 7.0 | 0.00 | 0.00 | 0.00 | 46 | 1007.2 |
| 20260904183518 | 83 | 256 | 1.0 | 9.0 | 0.00 | 0.00 | 0.00 | 44 | 1007.2 |
| 20260904182518 | 84 | 126 | 1.0 | 5.0 | 0.00 | 0.00 | 0.00 | 44 | 1007.0 |
| 20260904182017 | 83 | 274 | 2.0 | 6.0 | 0.00 | 0.00 | 0.00 | 44 | 1006.9 |
| 20260904181517 | 83 | 89 | 1.0 | 3.0 | 0.00 | 0.00 | 0.00 | 46 | 1006.9 |
| 20260904181018 | 83 | 302 | 2.0 | 7.0 | 0.00 | 0.00 | 0.00 | 43 | 1007.0 |
| 20260904175018 | 82 | 92 | 2.0 | 3.0 | 0.00 | 0.00 | 0.00 | 49 | 1007.3 |
| 20260904173518 | 81 | 286 | 1.0 | 6.0 | 0.00 | 0.00 | 0.00 | 54 | 1007.3 |
| 20260904172518 | 80 | 258 | 2.0 | 5.0 | 0.00 | 0.00 | 0.00 | 55 | 1007.4 |
| 20260904171518 | 81 | 180 | 1.0 | 3.0 | 0.00 | 0.00 | 0.00 | 55 | 1007.3 |
| 20260904171018 | 81 | 65 | 2.0 | 5.0 | 0.00 | 0.00 | 0.00 | 55 | 1007.4 |
| 20260904170518 | 81 | 244 | 1.0 | 8.0 | 0.00 | 0.00 | 0.00 | 55 | 1007.5 |
| 20260904170018 | 80 | 228 | 1.0 | 3.0 | 0.00 | 0.00 | 0.00 | 59 | 1007.4 |
| 20260904165017 | 80 | 236 | 1.0 | 3.0 | 0.00 | 0.00 | 0.00 | 54 | 1007.5 |
| 20260904164018 | 81 | 42 | 2.0 | 5.0 | 0.00 | 0.00 | 0.00 | 54 | 1007.5 |
| 20260904163518 | 82 | 257 | 2.0 | 5.0 | 0.00 | 0.00 | 0.00 | 54 | 1007.6 |
| 20260904162517 | 82 | 21 | 2.0 | 7.0 | 0.00 | 0.00 | 0.00 | 51 | 1007.6 |
| 20260904162017 | 81 | 83 | 3.0 | 5.0 | 0.00 | 0.00 | 0.00 | 53 | 1007.6 |
| 20260904161017 | 81 | 40 | 2.0 | 8.0 | 0.00 | 0.00 | 0.00 | 53 | 1007.8 |
| 20260904160517 | 81 | 43 | 2.0 | 5.0 | 0.00 | 0.00 | 0.00 | 55 | 1007.8 |
| 20260904160018 | 81 | 54 | 1.0 | 6.0 | 0.00 | 0.00 | 0.00 | 55 | 1007.9 |
| 20260904155018 | 80 | 12 | 3.0 | 7.0 | 0.00 | 0.00 | 0.00 | 56 | 1007.9 |
| 20260904154517 | 80 | 134 | 1.0 | 7.0 | 0.00 | 0.00 | 0.00 | 57 | 1008.0 |
| 20260904154017 | 81 | 61 | 2.0 | 5.0 | 0.00 | 0.00 | 0.00 | 57 | 1008.0 |
| 20260904153517 | 80 | 100 | 2.0 | 6.0 | 0.00 | 0.00 | 0.00 | 57 | 1008.1 |
| 20260904152017 | 80 | 17 | 1.0 | 3.0 | 0.00 | 0.00 | 0.00 | 61 | 1008.1 |
| 20260904151517 | 80 | 255 | 2.0 | 6.0 | 0.00 | 0.00 | 0.00 | 59 | 1008.2 |
| 20260904151018 | 80 | 16 | 2.0 | 6.0 | 0.00 | 0.00 | 0.00 | 61 | 1008.2 |
| 20260904150517 | 79 | 199 | 2.0 | 5.0 | 0.00 | 0.00 | 0.00 | 60 | 1008.2 |
| 20260904150018 | 79 | 195 | 1.0 | 5.0 | 0.00 | 0.00 | 0.00 | 59 | 1008.2 |
| 20260904145017 | 79 | 311 | 1.0 | 3.0 | 0.00 | 0.00 | 0.00 | 62 | 1008.3 |
| 20260904144517 | 79 | 207 | 2.0 | 3.0 | 0.00 | 0.00 | 0.00 | 63 | 1008.4 |
| 20260904144017 | 79 | 321 | 1.0 | 2.0 | 0.00 | 0.00 | 0.00 | 64 | 1008.3 |
| 20260904143518 | 79 | 82 | 2.0 | 3.0 | 0.00 | 0.00 | 0.00 | 61 | 1008.5 |
| 20260904143017 | 78 | 20 | 1.0 | 5.0 | 0.00 | 0.00 | 0.00 | 64 | 1008.5 |
| 20260904142517 | 79 | 336 | 2.0 | 6.0 | 0.00 | 0.00 | 0.00 | 60 | 1008.5 |
| 20260904141517 | 78 | 195 | 1.0 | 3.0 | 0.00 | 0.00 | 0.00 | 63 | 1008.6 |
| 20260904141018 | 77 | 256 | 1.0 | 3.0 | 0.00 | 0.00 | 0.00 | 69 | 1008.5 |
| 20260904140517 | 77 | 11 | 1.0 | 3.0 | 0.00 | 0.00 | 0.00 | 66 | 1008.6 |
| 20260904140017 | 76 | 262 | 1.0 | 5.0 | 0.00 | 0.00 | 0.00 | 72 | 1008.6 |
| 20260904135517 | 76 | 270 | 1.0 | 2.0 | 0.00 | 0.00 | 0.00 | 78 | 1008.6 |
| 20260904135017 | 76 | 316 | 1.0 | 5.0 | 0.00 | 0.00 | 0.00 | 71 | 1008.4 |
| 20260904133517 | 74 | 275 | 2.0 | 3.0 | 0.00 | 0.00 | 0.00 | 79 | 1008.6 |
| 20260904133017 | 73 | 255 | 1.0 | 2.0 | 0.00 | 0.00 | 0.00 | 83 | 1008.5 |
| 20260904132017 | 72 | 220 | 1.0 | 2.0 | 0.00 | 0.00 | 0.00 | 87 | 1008.7 |
| 20260904131017 | 71 | 266 | 1.0 | 2.0 | 0.00 | 0.00 | 0.00 | 91 | 1008.5 |
| 20260904130517 | 71 | 59 | 0.0 | 2.0 | 0.00 | 0.00 | 0.00 | 86 | 1008.6 |
| 20260904130017 | 71 | 260 | 1.0 | 2.0 | 0.00 | 0.00 | 0.00 | 91 | 1008.6 |
| 20260904125517 | 70 | 249 | 0.0 | 2.0 | 0.00 | 0.00 | 0.00 | 95 | 1008.8 |
| 20260904125017 | 69 | 262 | 1.0 | 3.0 | 0.00 | 0.00 | 0.00 | 97 | 1008.7 |
| 20260904124017 | 67 | 313 | 1.0 | 3.0 | 0.00 | 0.00 | 0.00 | 100 | 1008.7 |
| 20260904123016 | 66 | 203 | 1.0 | 1.0 | 0.00 | 0.00 | 0.00 | 100 | 1008.6 |
| 20260904122017 | 66 | 220 | 0.0 | 0.0 | 0.00 | 0.00 | 0.00 | 100 | 1008.7 |
| 20260904121517 | 66 | 206 | 1.0 | 1.0 | 0.00 | 0.00 | 0.00 | 100 | 1008.7 |
| 20260904121017 | 66 | 231 | 1.0 | 2.0 | 0.00 | 0.00 | 0.00 | 100 | 1008.5 |
| 20260904120517 | 66 | 236 | 0.0 | 0.0 | 0.00 | 0.00 | 0.00 | 100 | 1008.4 |
| 20260904120017 | 66 | 251 | 0.0 | 1.0 | 0.00 | 0.00 | 0.00 | 100 | 1008.4 |
| 20260904115517 | 66 | 184 | 0.0 | 1.0 | 0.00 | 0.00 | 0.00 | 100 | 1008.4 |
| 20260904115017 | 65 | 333 | 0.0 | 1.0 | 0.00 | 0.00 | 0.00 | 100 | 1008.5 |
| 20260904114517 | 65 | 353 | 0.0 | 1.0 | 0.00 | 0.00 | 0.00 | 100 | 1008.5 |
| 20260904114017 | 65 | 51 | 0.0 | 0.0 | 0.00 | 0.00 | 0.00 | 100 | 1008.4 |
| 20260904113517 | 65 | 5 | 0.0 | 0.0 | 0.00 | 0.00 | 0.00 | 100 | 1008.4 |
| 20260904113017 | 65 | 28 | 0.0 | 0.0 | 0.00 | 0.00 | 0.00 | 100 | 1008.4 |
| 20260904112016 | 65 | 217 | 0.0 | 1.0 | 0.00 | 0.02 | 0.00 | 100 | 1008.3 |
| 20260904110516 | 64 | 209 | 0.0 | 0.0 | 0.00 | 0.02 | 0.00 | 100 | 1008.4 |
| 20260904110017 | 64 | 221 | 0.0 | 0.0 | 0.00 | 0.02 | 0.00 | 100 | 1008.4 |
| 20260904105017 | 64 | 233 | 0.0 | 1.0 | 0.00 | 0.04 | 0.00 | 100 | 1008.4 |
| 20260904104516 | 64 | 239 | 0.0 | 0.0 | 0.00 | 0.04 | 0.00 | 100 | 1008.4 |
| 20260904104017 | 64 | 223 | 0.0 | 0.0 | 0.00 | 0.06 | 0.00 | 100 | 1008.4 |
| 20260904103517 | 64 | 236 | 0.0 | 0.0 | 0.00 | 0.08 | 0.00 | 100 | 1008.4 |
| 20260904103017 | 64 | 226 | 0.0 | 0.0 | 0.00 | 0.10 | 0.00 | 100 | 1008.3 |
| 20260904102517 | 64 | 262 | 0.0 | 0.0 | 0.00 | 0.10 | 0.00 | 100 | 1008.2 |
| 20260904102017 | 64 | 262 | 0.0 | 0.0 | 0.00 | 0.12 | 0.00 | 100 | 1008.3 |
| 20260904101516 | 64 | 262 | 0.0 | 0.0 | 0.00 | 0.12 | 0.00 | 100 | 1008.3 |
| 20260904101017 | 63 | 322 | 0.0 | 0.0 | 0.00 | 0.14 | 0.00 | 100 | 1008.2 |
| 20260904100518 | 63 | 263 | 0.0 | 0.0 | 0.00 | 0.14 | 0.00 | 100 | 1008.2 |
| 20260904100016 | 63 | 264 | 0.0 | 0.0 | 0.00 | 0.18 | 0.00 | 100 | 1008.2 |